Wetbulb
49.71 48.67 49.16 50.85 52.35 49.21 50.79 52.90 50.32 52.68 51.09 57.27 58.54 59.34 61.89 65.48 66.35 64.98 63.64 66.76 65.48 65.12 66.69 68.81 69.21 69.41 69.25 70.28 70.53 70.50 70.32 69.91 70.25 69.50 69.74 69.13 67.11 67.14 67.22 67.04 66.68 66.97 66.81 66.50
50.01 51.55 49.10 48.55 51.13 52.72 51.99 51.13 51.42 52.39 53.27 57.98 58.38 60.36 61.83 64.17 65.00 65.23 64.56 66.06 66.57 66.83 67.12 67.99 68.26 68.35 68.44 68.87 69.55 69.95 69.79 69.84 70.85 70.01 69.45 68.32 65.12 66.52 66.20 65.72 65.58 65.76 65.03 64.66
47.07 50.70 51.13 48.33 51.97 53.28 54.34 55.30 55.08 52.64 57.36 58.44 58.71 59.11 62.07 64.07 65.26 65.33 65.58 65.61 65.94 65.67 64.96 64.88 66.01 65.71 65.25 65.71 67.48 68.88 69.18 70.01 70.38 70.06 69.15 67.17 64.68 65.60 64.95 63.69 63.05 62.50 63.16 63.23
48.53 49.97 43.07 50.89 55.12 55.78 55.24 57.65 58.33 59.51 58.82 58.50 59.04 60.00 61.93 64.61 65.84 65.70 65.73 63.86 63.02 61.54 61.66 62.15 62.55 63.37 64.10 64.53 65.72 64.83 64.90 67.97 70.26 69.38 68.27 64.99 65.19 64.38 63.14 63.50 61.67 59.78 59.55 59.41
47.43 47.23 48.90 52.22 56.34 57.21 56.10 56.08 60.15 58.58 58.28 58.53 60.14 60.84 59.83 61.84 65.19 65.26 64.89 62.49 61.06 61.24 60.30 58.89 60.21 60.16 62.11 62.75 63.31 62.30 61.84 62.68 65.45 67.74 65.83 64.32 63.64 61.99 61.56 61.35 61.31 59.38 57.99 57.90
49.01 45.34 42.95 52.03 58.50 60.73 60.30 51.65 59.46 59.82 59.79 59.33 59.46 56.00 59.30 59.06 60.58 59.55 58.84 58.57 58.59 58.89 58.54 57.68 57.38 58.50 58.92 58.71 59.69 58.13 58.55 58.49 59.78 65.83 63.92 62.69 61.29 59.76 60.03 60.74 59.88 59.05 55.42 54.95
48.71 48.39 50.73 54.71 59.19 60.30 50.50 52.55 61.11 60.93 61.48 60.76 58.73 59.52 60.32 58.61 57.73 57.54 57.08 57.30 57.94 57.87 57.04 56.50 56.55 57.13 55.99 55.10 54.30 54.84 55.40 55.83 56.13 57.11 57.89 57.49 57.20 58.36 57.56 57.78 56.85 53.72 53.08 52.99
47.79 46.92 45.64 58.64 59.37 54.56 58.82 63.08 61.91 62.32 62.51 61.58 58.60 57.29 56.77 56.71 56.11 55.97 55.57 56.09 57.05 55.34 54.98 55.61 56.12 56.15 54.39 53.32 53.60 54.06 54.24 53.83 53.39 52.84 52.84 52.72 52.87 53.50 53.70 55.83 55.46 53.39 51.60 49.40
49.15 50.19 57.11 59.70 60.13 61.72 61.52 60.25 62.41 62.92 62.65 61.37 57.98 56.35 56.11 55.55 55.49 55.65 55.43 55.36 56.19 54.40 54.43 54.39 54.86 55.36 54.04 52.95 53.62 52.90 52.21 51.70 51.88 51.70 51.66 51.79 51.43 51.55 50.74 52.00 50.94 50.26 48.49 48.69
53.64 55.71 57.30 59.36 61.13 61.43 62.36 62.96 63.66 63.86 63.19 61.23 58.19 56.60 55.37 54.93 55.00 55.33 55.62 55.23 56.23 55.92 54.47 53.07 54.11 53.72 53.19 52.64 51.95 51.49 50.45 50.58 50.98 50.51 50.37 50.62 50.58 51.42 51.22 49.96 48.96 48.22 48.57 48.73
54.31 56.75 57.93 59.41 60.14 61.19 61.91 62.02 61.99 63.07 62.15 59.88 57.09 55.63 56.11 55.87 56.02 56.43 56.44 56.45 56.16 54.73 53.61 52.68 52.82 52.38 52.66 52.12 52.33 50.48 50.16 49.57 48.98 48.64 47.86 45.85 44.19 46.41 48.22 48.40 49.47 49.09 49.27 50.62
53.37 56.65 57.75 57.96 60.01 61.30 61.43 60.61 60.79 60.92 58.62 58.64 58.21 57.18 57.23 57.08 57.45 57.20 56.41 56.10 54.29 53.55 53.16 51.93 51.85 52.29 52.46 51.81 51.87 52.59 51.58 50.40 49.61 47.55 45.79 44.98 44.34 42.09 41.97 41.92 41.00 40.33 41.44 46.14
55.20 58.21 59.30 60.54 61.21 61.68 60.96 60.93 60.88 60.79 59.63 57.07 57.55 57.20 58.72 57.35 57.67 55.40 56.36 54.65 53.84 53.30 53.89 54.11 53.39 52.54 52.70 53.12 53.67 53.39 52.49 51.20 48.68 48.68 47.51 43.84 47.25 45.91 42.55 40.97 39.76 38.56 38.18 38.44
57.54 58.30 57.65 59.03 58.51 61.06 61.53 60.90 59.43 60.39 60.18 58.80 57.17 58.10 58.43 57.66 56.47 56.64 55.71 54.34 54.61 55.31 54.65 54.29 53.13 51.71 51.89 52.50 52.38 50.69 48.33 44.79 46.87 46.01 45.88 45.87 46.25 46.74 48.30 48.39 47.84 46.94 39.27 40.60
55.10 58.12 58.00 59.02 60.15 60.09 60.55 60.28 59.80 59.09 58.42 58.00 58.57 56.83 56.89 56.31 56.75 56.76 57.01 56.71 56.63 54.87 54.64 53.39 52.14 50.38 51.52 51.17 49.13 47.65 46.99 46.59 46.62 46.10 46.00 45.35 45.83 45.82 46.26 46.69 46.97 46.62 46.64 42.20
53.65 56.93 57.67 57.49 58.05 59.13 59.58 57.46 58.58 58.55 58.79 57.90 57.40 57.34 57.10 57.24 57.30 56.86 57.39 56.84 55.17 55.26 54.83 53.00 51.05 50.49 50.58 49.63 48.60 48.27 47.03 44.39 47.19 47.47 46.61 46.68 46.48 46.76 46.83 46.80 46.61 46.97 47.34 47.53
52.82 54.81 55.76 55.26 56.84 58.55 59.17 60.06 59.79 59.48 59.29 58.41 58.03 57.66 57.39 57.22 57.22 57.13 57.05 56.84 57.11 56.31 53.36 51.52 50.12 50.52 50.11 50.05 50.27 49.81 49.43 48.02 46.18 49.35 49.39 49.12 48.58 47.93 47.62 47.63 47.18 46.97 47.38 46.47
55.29 55.26 55.09 54.04 54.96 56.04 58.79 59.93 60.05 59.79 59.01 59.14 58.45 57.76 57.66 57.05 56.96 56.78 56.47 56.90 55.27 53.73 52.03 51.68 51.26 51.33 51.82 51.68 51.34 50.49 50.45 50.47 50.33 51.05 50.48 49.85 50.01 50.18 48.86 48.06 47.62 47.23 47.44 46.42
54.63 55.15 55.70 56.09 55.60 55.83 57.91 60.23 60.55 60.52 60.08 58.94 58.18 57.66 58.11 58.19 58.02 56.39 55.55 55.16 53.38 52.27 52.44 53.56 51.76 52.72 54.70 55.28 53.89 53.18 52.55 52.11 51.97 51.77 51.13 48.99 49.11 49.78 49.59 49.19 48.90 48.51 48.26 47.37
53.43 55.33 56.03 56.40 56.48 56.34 57.64 59.76 60.68 59.85 59.83 59.00 58.71 57.94 57.33 57.53 57.81 55.30 56.46 55.52 56.29 55.75 57.46 56.81 56.63 56.70 56.54 55.88 52.90 53.93 53.60 53.58 53.40 53.76 53.87 53.16 52.70 52.02 51.66 46.33 50.12 50.28 50.01 49.42
53.07 54.22 55.12 55.69 55.73 56.87 58.11 59.35 59.48 59.30 59.22 59.19 58.24 57.62 57.75 58.07 56.45 57.33 56.45 54.96 57.41 57.75 57.70 55.89 56.13 56.09 56.48 56.09 54.90 54.66 53.61 53.64 54.45 54.91 53.75 53.06 53.27 52.75 52.68 52.29 51.80 50.79 50.81 50.69
53.00 52.68 54.22 55.24 56.23 57.92 58.79 59.73 59.92 59.45 58.67 58.68 58.79 58.29 57.58 57.18 57.38 57.17 58.17 56.75 56.26 51.39 55.02 55.64 55.69 53.94 52.25 50.81 53.61 53.60 54.38 53.95 51.68 52.99 53.00 53.06 52.57 52.20 51.98 51.71 51.32 51.81 51.86 51.56
52.35 53.14 55.21 56.68 55.22 54.80 56.43 57.12 57.63 57.98 57.24 56.90 56.39 57.17 57.32 57.15 56.76 55.16 53.94 54.45 55.34 50.82 52.61 52.10 49.18 48.73 48.46 52.03 53.80 53.22 52.37 50.28 49.95 50.87 50.56 52.25 52.49 52.07 52.39 52.13 52.03 52.26 52.24 52.29
53.15 53.82 53.47 53.80 54.97 54.78 53.06 54.88 55.89 56.51 56.69 57.24 56.85 57.12 55.59 52.82 52.11 53.96 52.31 49.01 47.04 49.29 48.47 48.68 47.88 46.96 46.21 48.98 49.79 48.83 49.06 50.06 48.63 48.48 50.57 43.02 51.33 51.05 50.78 50.77 50.63 50.75 51.13 50.13
53.32 53.88 54.72 53.58 52.45 51.77 52.32 53.79 53.89 54.33 53.57 53.47 53.63 54.19 54.30 54.60 52.25 49.60 48.92 48.00 46.64 48.43 49.55 47.62 47.03 46.91 48.85 48.74 49.24 48.63 46.95 46.47 47.42 48.69 50.50 50.60 50.18 49.74 50.04 50.34 50.15 50.12 50.06 50.50
53.11 52.69 52.69 53.75 53.47 53.79 53.23 52.54 52.01 52.01 51.78 51.07 51.49 52.26 52.27 51.62 50.84 50.64 50.76 49.77 50.44 49.22 51.21 52.34 53.30 52.83 51.69 50.76 49.74 49.64 50.08 50.74 50.22 50.72 49.42 50.56 50.62 50.41 50.23 50.10 49.96 50.26 50.34 50.48
52.04 49.83 51.81 51.55 52.33 52.68 52.41 52.10 51.34 50.87 51.68 51.57 50.78 51.76 51.92 51.81 51.20 51.15 50.01 51.58 51.56 51.52 51.86 52.43 52.70 52.29 53.01 52.12 50.15 50.30 50.55 49.50 44.72 48.12 49.61 49.93 50.01 49.94 49.78 49.66 49.67 49.75 49.81 49.79
MSLP
1006.15 1005.86 1005.51 1004.98 1004.92 1005.39 1005.05 1004.69 1004.30 1004.19 1004.43 1004.20 1005.00 1005.87 1006.42 1007.18 1008.32 1009.47 1010.48 1011.15 1011.56 1011.98 1012.43 1012.67 1012.92 1013.10 1013.49 1013.67 1013.90 1014.00 1014.25 1014.33 1014.62 1015.17 1015.75 1016.12 1016.58 1016.62 1016.69 1016.71 1016.75 1016.63 1016.67 1016.66
1006.22 1005.68 1005.29 1004.88 1004.55 1004.68 1004.78 1004.61 1004.45 1004.36 1004.33 1004.59 1005.77 1006.32 1006.98 1007.65 1008.42 1009.36 1010.37 1011.12 1011.95 1012.44 1012.79 1013.09 1013.38 1013.73 1013.92 1014.09 1014.30 1014.43 1014.43 1014.36 1014.49 1015.13 1015.62 1016.19 1016.83 1016.87 1017.03 1016.95 1016.99 1017.12 1017.22 1017.24
1006.31 1006.03 1005.27 1005.07 1004.24 1004.19 1004.14 1004.11 1004.00 1004.24 1004.37 1005.18 1006.15 1006.88 1007.21 1007.99 1008.77 1009.51 1010.37 1011.25 1012.15 1012.79 1013.39 1013.94 1014.20 1014.47 1014.97 1015.17 1015.25 1015.03 1014.78 1014.70 1014.71 1015.01 1015.46 1016.14 1016.83 1016.97 1017.23 1017.39 1017.54 1017.58 1017.71 1017.87
1006.61 1006.28 1005.40 1004.77 1004.74 1004.46 1004.32 1004.24 1004.43 1004.77 1005.23 1006.03 1007.02 1007.97 1008.19 1008.61 1009.05 1009.61 1010.69 1011.83 1012.59 1013.39 1014.14 1014.71 1015.09 1015.60 1015.88 1015.69 1015.47 1015.48 1015.29 1015.08 1014.74 1015.01 1015.51 1016.30 1016.81 1017.27 1017.52 1017.65 1017.86 1018.08 1018.36 1018.54
1007.23 1006.26 1005.89 1005.31 1005.37 1005.45 1005.11 1004.87 1005.01 1005.29 1006.07 1006.87 1007.78 1008.32 1009.36 1009.85 1009.99 1010.59 1011.60 1012.65 1013.42 1014.26 1014.94 1015.52 1015.54 1016.33 1016.32 1015.68 1015.76 1015.91 1015.88 1015.59 1015.21 1015.13 1015.78 1016.38 1016.88 1017.58 1017.83 1017.97 1018.28 1018.68 1018.97 1019.18
1007.79 1006.49 1005.67 1005.41 1006.14 1006.42 1006.33 1005.56 1005.46 1005.89 1006.37 1007.07 1008.08 1008.38 1009.56 1010.93 1011.51 1012.03 1012.80 1013.59 1014.26 1015.07 1015.67 1015.92 1016.42 1016.76 1016.70 1016.54 1016.65 1016.79 1016.69 1016.40 1015.92 1015.41 1015.82 1016.41 1017.13 1017.93 1018.28 1018.34 1018.57 1018.92 1019.50 1019.85
1007.64 1007.05 1006.49 1006.64 1007.04 1007.13 1007.09 1006.97 1006.32 1006.46 1006.85 1007.46 1008.27 1009.67 1010.77 1012.07 1012.82 1013.23 1013.75 1014.25 1014.95 1015.62 1016.15 1016.62 1017.04 1017.23 1017.41 1017.49 1017.72 1017.72 1017.33 1016.87 1016.52 1016.45 1016.65 1016.90 1017.65 1018.10 1018.43 1018.61 1019.10 1019.41 1019.72 1020.42
1008.24 1007.82 1007.60 1007.86 1007.84 1007.97 1008.28 1007.46 1007.38 1007.41 1007.72 1008.64 1009.63 1011.02 1012.06 1013.06 1013.79 1014.45 1014.92 1015.29 1015.97 1016.47 1016.81 1017.12 1017.48 1017.64 1017.95 1018.15 1018.15 1017.83 1017.68 1017.62 1017.59 1017.56 1017.60 1017.94 1018.31 1018.77 1019.11 1019.06 1019.50 1020.02 1020.39 1020.79
1008.75 1008.09 1008.26 1008.59 1008.71 1008.93 1008.97 1008.64 1008.08 1008.26 1008.65 1009.22 1010.25 1011.42 1012.58 1013.57 1014.48 1015.05 1015.40 1015.71 1016.16 1016.72 1017.09 1017.50 1017.79 1017.86 1017.96 1018.32 1018.22 1018.03 1018.17 1018.29 1018.45 1018.49 1018.51 1018.66 1018.90 1019.28 1019.68 1019.84 1020.23 1020.85 1020.69 1021.35
1009.24 1008.69 1008.71 1008.95 1009.16 1009.31 1009.26 1008.85 1008.59 1008.80 1009.28 1010.07 1010.94 1011.92 1012.80 1013.85 1014.73 1015.19 1015.58 1015.88 1016.34 1016.67 1017.18 1017.70 1017.91 1018.03 1018.16 1018.29 1018.39 1018.31 1018.55 1018.79 1019.05 1019.26 1019.45 1019.54 1019.70 1020.06 1020.22 1020.41 1020.71 1021.06 1021.58 1021.75
1009.39 1008.91 1009.03 1008.97 1009.47 1009.69 1009.61 1009.48 1009.32 1009.53 1010.02 1010.76 1011.61 1012.55 1013.26 1014.03 1014.66 1015.24 1015.61 1015.86 1016.32 1016.68 1017.17 1017.62 1017.83 1018.03 1018.35 1018.43 1018.36 1018.67 1018.93 1019.37 1019.65 1020.03 1020.08 1020.49 1020.92 1021.09 1021.19 1021.46 1021.39 1021.49 1021.90 1021.94
1009.65 1009.77 1009.59 1009.48 1009.99 1010.09 1009.91 1009.94 1010.03 1010.24 1010.81 1011.47 1012.13 1012.59 1013.35 1014.04 1014.58 1015.09 1015.47 1015.90 1016.42 1016.92 1017.31 1017.75 1017.98 1018.12 1018.34 1018.57 1018.68 1018.80 1019.13 1019.68 1020.01 1020.21 1020.52 1020.94 1021.23 1021.75 1021.90 1022.37 1021.98 1022.20 1022.20 1022.30
1010.82 1010.65 1010.30 1010.12 1010.23 1010.20 1010.18 1010.30 1010.39 1010.77 1011.31 1011.89 1012.57 1013.18 1013.57 1014.10 1014.61 1015.13 1015.55 1016.09 1016.52 1016.99 1017.40 1017.76 1018.03 1018.33 1018.65 1018.80 1019.06 1019.08 1019.25 1019.77 1020.26 1020.46 1020.83 1021.05 1021.05 1021.44 1022.16 1022.93 1022.83 1023.00 1023.13 1023.12
1011.40 1010.99 1010.46 1010.20 1010.27 1010.45 1010.40 1010.70 1010.93 1011.19 1011.69 1012.37 1012.95 1013.45 1013.82 1014.23 1014.76 1015.06 1015.59 1016.26 1016.75 1017.05 1017.40 1017.89 1018.20 1018.53 1019.03 1019.34 1019.52 1019.62 1019.92 1020.33 1020.20 1020.20 1020.29 1020.52 1020.76 1021.06 1021.42 1021.78 1022.40 1023.16 1023.90 1023.92
1010.96 1011.00 1010.71 1010.50 1010.47 1010.54 1010.83 1011.09 1011.07 1011.39 1012.25 1012.80 1013.29 1013.77 1014.12 1014.54 1014.82 1015.21 1015.86 1016.37 1016.79 1017.24 1017.59 1018.06 1018.44 1018.84 1019.34 1019.56 1019.83 1020.03 1020.06 1020.13 1020.36 1020.43 1020.38 1020.74 1020.99 1021.14 1021.42 1021.79 1022.15 1022.74 1023.40 1023.93
1011.18 1010.83 1010.74 1010.52 1010.57 1010.62 1010.83 1011.05 1011.03 1011.50 1012.00 1012.78 1013.33 1013.90 1014.40 1014.71 1015.06 1015.57 1016.14 1016.61 1016.96 1017.18 1017.75 1018.22 1018.69 1019.13 1019.51 1019.76 1019.91 1020.14 1020.42 1020.74 1020.55 1020.56 1020.71 1020.78 1021.02 1021.14 1021.40 1021.63 1022.01 1022.35 1022.64 1022.85
1011.40 1010.69 1010.37 1010.26 1010.44 1010.59 1010.38 1010.59 1010.92 1011.33 1011.99 1012.68 1013.26 1013.90 1014.37 1014.75 1015.18 1015.65 1016.17 1016.62 1016.99 1017.37 1017.80 1018.28 1018.84 1019.28 1019.62 1019.85 1019.70 1019.80 1020.04 1020.50 1020.78 1020.49 1020.57 1020.74 1020.93 1021.10 1021.30 1021.51 1021.75 1022.00 1022.42 1022.81
1012.03 1011.33 1011.08 1010.91 1010.75 1010.61 1010.60 1010.81 1010.94 1011.31 1011.84 1012.49 1013.14 1013.66 1014.10 1014.49 1014.92 1015.64 1016.19 1016.66 1017.15 1017.57 1017.88 1018.36 1018.87 1019.26 1019.51 1019.76 1019.82 1019.92 1019.95 1020.00 1020.22 1020.23 1020.47 1020.72 1020.80 1021.02 1021.21 1021.38 1021.62 1021.59 1022.03 1022.40
1011.89 1011.30 1010.95 1010.61 1010.45 1010.47 1010.43 1010.60 1011.02 1011.43 1011.88 1012.40 1012.89 1013.43 1013.99 1014.51 1015.00 1015.79 1016.34 1016.65 1016.99 1017.36 1018.04 1018.54 1019.17 1019.43 1019.55 1019.65 1019.78 1019.66 1019.76 1019.86 1020.00 1020.10 1020.27 1020.55 1020.74 1020.70 1020.92 1021.18 1021.22 1021.27 1021.41 1021.61
1011.61 1011.11 1010.62 1010.29 1010.17 1010.11 1010.18 1010.47 1010.95 1011.50 1011.94 1012.34 1012.81 1013.47 1014.13 1014.70 1015.29 1016.04 1016.25 1016.53 1016.93 1017.13 1017.95 1018.44 1018.86 1019.03 1019.29 1019.55 1019.88 1019.58 1019.54 1019.51 1019.42 1019.40 1019.53 1019.79 1019.93 1019.97 1020.22 1020.66 1020.53 1020.57 1020.60 1020.78
1011.60 1011.04 1010.73 1010.21 1009.88 1009.87 1010.07 1010.31 1010.71 1011.28 1012.06 1012.66 1013.04 1013.45 1013.94 1014.67 1015.46 1015.78 1016.17 1016.55 1017.23 1017.51 1017.82 1018.41 1018.65 1018.75 1019.07 1019.33 1019.56 1019.33 1019.43 1019.44 1019.13 1018.97 1019.01 1019.08 1019.18 1019.40 1019.49 1019.57 1019.71 1019.91 1019.92 1019.99
1011.36 1011.03 1010.63 1010.17 1010.04 1010.18 1010.41 1010.55 1010.90 1011.45 1011.94 1012.63 1013.21 1013.80 1014.26 1014.92 1015.60 1016.10 1016.48 1016.86 1017.54 1017.76 1018.04 1018.43 1018.73 1018.99 1019.24 1019.46 1019.38 1019.26 1019.16 1019.28 1019.37 1018.98 1018.86 1018.92 1018.95 1018.99 1018.99 1019.08 1019.18 1019.24 1019.42 1019.48
1011.30 1011.02 1010.73 1010.49 1010.71 1010.92 1011.13 1011.39 1011.68 1012.07 1012.63 1013.23 1013.79 1014.16 1014.57 1015.13 1015.95 1016.38 1017.00 1017.79 1017.83 1018.33 1018.58 1018.96 1019.21 1019.38 1019.78 1019.81 1019.52 1019.38 1019.39 1019.56 1019.50 1019.25 1019.26 1019.06 1018.94 1018.95 1018.85 1018.82 1018.91 1019.03 1019.04 1019.00
1011.14 1010.97 1011.05 1011.25 1011.34 1011.74 1012.11 1012.56 1012.71 1013.09 1013.55 1014.03 1014.52 1014.98 1015.52 1016.11 1016.93 1017.38 1017.88 1018.49 1018.57 1018.81 1019.39 1019.75 1019.66 1019.67 1020.19 1020.11 1020.06 1019.97 1019.86 1019.68 1019.69 1019.50 1019.14 1019.26 1018.89 1018.88 1018.87 1018.87 1018.76 1018.66 1018.65 1018.56
1011.45 1011.56 1011.68 1011.90 1012.06 1012.68 1013.27 1013.58 1013.78 1014.25 1014.65 1015.11 1015.49 1015.88 1016.24 1016.69 1017.06 1018.28 1018.59 1019.05 1019.66 1019.71 1019.87 1020.16 1020.27 1020.43 1020.61 1020.53 1020.34 1020.24 1020.11 1019.88 1019.67 1019.42 1019.25 1019.19 1019.09 1018.96 1018.84 1018.76 1018.62 1018.51 1018.38 1018.19
1012.21 1012.41 1012.59 1012.77 1013.10 1013.57 1014.20 1014.36 1014.80 1014.96 1015.34 1015.96 1016.47 1016.93 1017.36 1017.86 1018.33 1018.83 1019.28 1019.67 1019.91 1019.99 1020.13 1020.31 1020.41 1020.57 1020.51 1020.41 1020.38 1020.18 1019.94 1019.64 1019.53 1019.33 1019.33 1019.19 1019.08 1019.01 1018.80 1018.69 1018.54 1018.36 1018.16 1017.93
1013.17 1013.02 1013.36 1013.21 1013.85 1014.37 1014.68 1015.38 1015.41 1015.87 1016.54 1016.83 1017.27 1017.81 1018.17 1018.58 1018.95 1019.21 1019.53 1019.83 1020.08 1020.26 1020.44 1020.53 1020.53 1020.60 1020.53 1020.33 1020.17 1020.01 1019.98 1020.08 1020.15 1020.12 1019.68 1019.47 1019.37 1019.27 1019.12 1018.93 1018.65 1018.41 1018.21 1017.99
Wind_Speed
11 9 8 4 8 10 7 5 5 4 7 8 5 4 12 10 13 16 14 14 12 7 9 8 7 5 4 5 5 5 6 7 6 5 4 4 4 5 6 6 6 7 8 9
4 3 10 11 13 11 7 5 5 4 8 4 3 4 11 10 12 13 14 13 11 9 9 7 6 3 1 2 5 6 8 9 7 7 7 6 5 5 6 7 8 8 8 9
4 3 4 5 13 13 8 8 5 7 3 3 1 6 11 12 12 13 14 13 11 9 7 6 5 4 1 2 4 5 7 9 8 8 10 9 7 7 6 7 7 8 8 9
2 3 6 3 4 4 8 3 7 8 3 4 3 6 9 7 11 13 13 13 12 10 9 7 6 3 2 2 1 3 4 7 9 10 11 10 9 7 7 7 7 7 7 7
4 8 3 4 2 1 4 6 4 4 3 4 10 10 5 2 8 12 12 10 10 9 8 7 6 2 2 2 3 4 4 5 6 9 10 10 10 8 6 7 7 6 6 7
3 7 11 3 4 4 2 5 5 4 6 10 11 9 6 6 11 12 12 11 11 10 8 7 5 2 2 3 2 3 5 5 7 6 9 10 10 9 6 7 8 8 8 8
7 6 3 1 4 1 9 0 3 3 6 12 10 3 11 10 10 10 11 12 10 8 7 7 4 4 3 3 2 3 4 5 6 7 6 8 9 8 8 9 9 7 9 7
4 6 9 3 2 6 5 7 4 3 7 9 12 11 10 10 10 11 11 11 9 9 8 6 4 5 5 4 2 3 5 6 7 7 6 6 8 8 6 9 9 9 9 6
5 2 3 3 5 6 7 9 4 4 8 13 15 12 13 11 9 9 10 9 9 9 8 6 5 5 6 3 4 6 7 7 7 7 7 7 8 7 6 6 6 5 6 4
3 2 4 4 4 3 6 7 5 3 10 11 11 14 13 11 10 10 10 9 8 9 9 7 6 6 6 5 6 8 8 7 7 6 7 7 5 3 4 5 5 6 4 4
4 5 5 4 1 5 4 3 4 7 8 9 13 12 11 10 10 9 8 8 8 8 7 7 6 7 5 6 7 8 8 7 7 6 8 8 7 5 4 4 3 5 4 4
2 6 4 3 3 4 4 3 4 8 9 9 11 12 13 11 9 9 9 9 8 8 7 6 6 6 6 5 6 7 8 6 6 6 7 6 7 7 17 10 11 10 8 6
5 9 6 5 3 2 1 3 4 6 8 11 9 11 10 10 8 9 9 9 8 8 7 7 7 7 5 5 6 6 8 8 7 6 6 6 7 8 8 7 14 13 10 9
5 4 1 4 3 4 4 6 6 7 8 9 10 9 9 9 10 8 8 8 9 9 8 7 7 8 6 6 8 9 9 6 7 7 7 6 6 6 5 6 6 7 8 6
6 5 3 2 1 3 4 5 7 8 8 8 8 9 8 9 8 8 9 8 9 8 8 9 9 9 7 8 9 10 8 7 7 7 7 7 6 6 6 5 5 6 5 4
10 7 5 2 1 3 6 7 6 8 8 8 8 8 8 8 9 9 9 9 10 8 8 9 9 9 9 10 10 8 8 8 6 6 6 6 5 5 5 5 5 5 4 4
8 6 5 3 0 4 3 3 4 6 7 8 9 10 10 10 10 9 8 8 6 7 9 9 10 9 9 8 8 6 6 6 5 5 4 4 4 4 4 3 3 4 4 4
8 8 9 10 8 5 6 7 7 9 9 10 10 10 10 10 9 9 8 8 8 9 9 9 9 9 8 7 5 5 4 4 4 2 3 3 3 3 3 3 4 4 4 5
9 10 10 10 10 8 6 7 9 8 9 11 11 10 10 9 10 9 9 10 9 9 8 9 10 8 6 6 5 4 4 4 4 4 4 4 5 6 6 6 6 6 6 6
12 10 10 12 9 10 7 6 9 10 10 11 11 11 10 10 11 11 11 10 8 6 9 9 9 7 6 6 8 5 5 5 5 5 5 6 7 7 7 8 7 7 7 7
12 10 11 11 9 7 6 6 9 11 11 11 11 11 11 11 11 12 11 8 7 7 9 9 7 5 4 3 5 6 6 7 7 7 7 7 6 7 8 6 6 7 7 8
10 9 10 7 6 5 5 6 8 10 12 12 10 10 11 12 11 10 7 7 5 7 6 5 5 3 4 4 2 2 1 2 4 5 5 5 5 5 5 5 6 6 7 8
8 9 7 6 7 9 9 7 7 8 10 10 8 10 10 8 8 8 7 5 6 8 8 6 9 10 7 2 1 3 4 3 4 5 4 4 2 3 3 3 4 6 7 8
2 6 9 10 11 12 12 9 10 11 9 9 8 9 9 7 7 6 9 9 11 11 7 6 9 12 7 4 3 3 3 4 3 3 2 2 2 3 3 4 4 4 5 6
8 8 11 13 13 11 12 11 10 11 11 10 10 9 9 5 5 6 7 7 7 7 6 7 8 5 2 3 4 4 3 3 3 2 2 3 4 5 5 6 6 6 6 6
9 7 9 11 9 7 7 8 6 7 8 8 7 7 8 8 8 8 6 7 6 6 4 3 3 1 1 3 4 4 4 4 3 2 4 5 6 7 7 8 7 7 7 7
9 10 8 9 8 8 8 6 8 9 8 9 9 7 8 7 6 7 6 5 4 3 2 1 1 2 3 4 4 6 5 5 5 6 4 4 5 6 7 7 7 7 8 8
Wind_Direction
259 246 253 241 183 188 211 162 234 167 212 265 341 239 197 175 161 157 159 164 168 172 167 155 164 158 199 204 214 216 219 220 220 198 195 156 133 124 106 94 79 74 72 66
272 264 220 233 222 200 233 183 270 236 259 270 59 139 171 175 170 168 162 166 174 160 151 144 143 162 222 244 243 229 233 231 214 195 178 175 157 144 126 109 95 81 75 73
252 347 145 225 229 206 206 190 195 204 250 357 91 200 166 163 174 162 157 155 154 140 134 120 98 70 39 354 301 271 243 235 213 197 185 171 164 156 142 119 103 92 82 78
238 212 216 57 319 247 228 218 210 280 319 313 77 105 128 165 167 156 155 150 138 125 120 104 85 62 216 210 336 288 276 261 212 201 185 161 166 163 145 134 124 108 94 88
241 212 322 158 109 215 233 184 208 241 125 129 138 132 89 64 160 147 145 124 111 112 112 106 100 94 271 47 302 305 321 321 305 180 171 162 165 163 146 132 121 107 97 98
172 234 222 173 130 16 250 227 159 193 163 160 173 195 146 140 126 113 111 117 118 118 113 97 70 69 58 57 357 340 333 326 302 181 165 159 146 151 134 125 119 120 99 87
212 247 264 101 344 154 201 83 14 222 184 171 175 7 122 118 105 108 115 118 119 121 112 110 129 129 114 100 53 334 0 22 39 52 92 120 127 141 139 132 122 104 101 83
192 223 243 39 198 231 2 316 320 191 166 137 116 112 111 115 117 122 127 130 133 129 120 113 117 132 126 100 68 56 56 60 64 72 84 96 109 111 119 130 126 123 117 105
245 209 31 319 297 314 306 279 296 208 172 142 138 140 139 133 132 136 134 135 137 134 121 115 122 128 120 96 84 78 73 67 63 74 86 90 97 96 86 84 101 103 106 92
273 162 274 307 308 309 310 279 291 210 161 151 150 146 132 135 143 146 147 142 139 133 123 115 105 95 93 91 87 87 81 73 72 72 74 70 72 66 105 113 121 116 104 109
271 273 286 244 296 342 10 32 109 127 141 139 143 139 141 141 143 147 139 133 128 121 117 110 102 88 88 92 98 94 94 94 90 86 88 78 58 42 56 43 88 122 120 130
354 339 312 4 44 3 30 70 110 128 125 133 143 143 147 149 147 148 137 130 119 113 114 107 107 102 92 99 113 121 113 110 106 108 100 104 103 86 56 60 70 72 70 102
301 326 288 326 52 20 56 127 119 123 131 135 134 145 148 138 138 127 130 127 127 130 129 128 114 102 96 103 120 118 108 114 113 117 116 112 106 101 96 68 69 57 63 75
299 313 249 26 17 17 58 96 107 110 124 132 138 144 140 137 138 138 138 139 140 140 133 125 120 106 104 113 114 105 101 94 115 109 104 103 100 101 107 113 115 111 58 57
326 261 294 335 276 102 113 144 131 128 128 136 141 141 142 146 148 136 134 137 139 137 131 134 126 113 123 125 122 124 122 109 104 100 90 92 98 97 98 106 113 121 137 157
315 294 220 184 189 163 168 178 154 150 150 147 145 148 145 147 143 135 143 146 153 147 133 131 128 130 137 133 128 119 106 88 90 106 116 110 114 110 109 110 127 138 159 143
294 284 297 312 214 205 213 225 212 165 158 162 158 149 150 145 145 147 144 148 138 132 132 137 129 134 135 141 132 123 124 132 95 122 114 108 107 111 115 130 141 160 176 154
288 286 281 278 291 290 234 217 191 181 180 167 156 155 154 158 157 151 141 137 129 128 132 133 140 143 146 150 155 148 150 151 164 173 159 181 182 181 186 195 203 190 199 180
303 293 289 283 262 255 251 212 198 187 175 170 161 165 167 167 160 141 145 142 143 145 153 158 158 176 180 176 191 191 195 201 215 232 238 231 221 233 223 221 225 218 219 212
301 295 298 293 262 228 225 204 181 183 179 171 163 155 160 161 153 151 156 157 165 161 159 176 180 190 190 179 204 231 238 250 256 265 262 260 247 232 228 224 235 228 224 225
294 303 291 287 249 206 202 190 180 176 164 170 167 163 160 157 159 157 162 160 157 164 170 163 188 184 196 232 222 245 245 246 260 279 293 289 273 249 244 237 223 226 238 232
297 292 296 280 199 134 143 159 163 162 164 160 163 158 152 157 160 162 160 152 147 155 144 154 173 118 120 170 149 192 183 292 297 294 295 293 288 270 248 232 239 243 246 249
284 278 257 173 133 112 100 107 127 146 152 149 154 158 158 148 153 157 136 96 117 89 91 90 94 90 59 9 28 10 354 328 311 324 321 305 306 264 254 255 266 269 270 269
224 133 115 114 107 97 89 92 103 103 109 111 118 124 129 120 82 67 95 92 99 96 78 61 56 48 24 12 9 10 3 6 339 302 324 310 340 322 301 291 287 295 295 283
100 107 110 107 99 89 95 87 93 90 89 87 84 86 94 87 102 107 104 100 88 97 95 65 69 57 327 346 348 353 335 325 356 4 359 343 330 328 326 314 300 300 306 301
90 90 88 84 91 97 105 82 89 99 88 87 82 88 88 88 94 99 95 97 102 94 82 57 49 38 29 341 323 295 277 301 307 320 337 344 348 335 333 333 327 319 312 306
74 74 86 83 76 87 81 95 95 93 98 97 91 85 92 96 100 102 99 106 104 107 108 72 300 265 272 304 357 17 15 8 28 343 339 344 346 343 337 331 325 323 324 326